owner,sensor,date,latitude,longitude,vertical_datum,direction_of_sea_water_velocity,sea_water_speed,upward_sea_water_velocity,qcFlag 
TABS,ioos:station:wmo:42049:1,2009-02-01T00:00:00Z,28.3507,-96.0058,2.0,231.1540181,9.629724814,-99999.0,'11133222,11111222,99999999' 
TABS,ioos:station:wmo:42049:1,2009-02-01T00:30:00Z,28.3507,-96.0058,2.0,230.6920229,8.84,-99999.0,'11133222,11111222,99999999' 
TABS,ioos:station:wmo:42049:1,2009-02-01T01:00:00Z,28.3507,-96.0058,2.0,267.1021186,6.528345885,-99999.0,'11133222,11111222,99999999' 
TABS,ioos:station:wmo:42049:1,2009-02-01T01:30:00Z,28.3507,-96.0058,2.0,283.6009316,7.654645648,-99999.0,'11133222,11111222,99999999' 
TABS,ioos:station:wmo:42049:1,2009-02-01T02:00:00Z,28.3507,-96.0058,2.0,308.9055978,6.926369901,-99999.0,'11133222,11111222,99999999' 
TABS,ioos:station:wmo:42049:1,2009-02-01T02:30:00Z,28.3507,-96.0058,2.0,326.5991932,6.049082575,-99999.0,'11133222,11111222,99999999' 
TABS,ioos:station:wmo:42049:1,2009-02-01T03:00:00Z,28.3507,-96.0058,2.0,354.2403059,5.779178142,-99999.0,'11133222,11111222,99999999' 
TABS,ioos:station:wmo:42049:1,2009-02-01T03:30:00Z,28.3507,-96.0058,2.0,5.478663303,7.122534661,-99999.0,'11133222,11111222,99999999' 
TABS,ioos:station:wmo:42049:1,2009-02-01T04:00:00Z,28.3507,-96.0058,2.0,14.3243365,8.20508379,-99999.0,'11133222,11111222,99999999' 
TABS,ioos:station:wmo:42049:1,2009-02-01T04:30:00Z,28.3507,-96.0058,2.0,23.73015314,10.75971189,-99999.0,'11111222,11111222,99999999' 
TABS,ioos:station:wmo:42049:1,2009-02-01T05:00:00Z,28.3507,-96.0058,2.0,29.61700611,12.76816745,-99999.0,'11111222,11111222,99999999' 
TABS,ioos:station:wmo:42049:1,2009-02-01T05:30:00Z,28.3507,-96.0058,2.0,35.78641067,16.07487481,-99999.0,'11111222,11111222,99999999' 
TABS,ioos:station:wmo:42049:1,2009-02-01T06:00:00Z,28.3507,-96.0058,2.0,33.95694534,17.27632484,-99999.0,'11111222,11111222,99999999' 
TABS,ioos:station:wmo:42049:1,2009-02-01T06:30:00Z,28.3507,-96.0058,2.0,30.68600783,15.55853464,-99999.0,'11111222,11111222,99999999' 
TABS,ioos:station:wmo:42049:1,2009-02-01T07:00:00Z,28.3507,-96.0058,2.0,28.94688119,17.54145376,-99999.0,'11111222,11111222,99999999' 
TABS,ioos:station:wmo:42049:1,2009-02-01T07:30:00Z,28.3507,-96.0058,2.0,35.63380879,21.50700584,-99999.0,'11111222,11111222,99999999' 
TABS,ioos:station:wmo:42049:1,2009-02-01T08:00:00Z,28.3507,-96.0058,2.0,33.93852393,21.11763481,-99999.0,'11111222,11111222,99999999' 
TABS,ioos:station:wmo:42049:1,2009-02-01T08:30:00Z,28.3507,-96.0058,2.0,27.14022775,24.50853933,-99999.0,'11111222,11111222,99999999' 
TABS,ioos:station:wmo:42049:1,2009-02-01T09:00:00Z,28.3507,-96.0058,2.0,30.37597579,20.7249801,-99999.0,'11111222,11111222,99999999' 
TABS,ioos:station:wmo:42049:1,2009-02-01T09:30:00Z,28.3507,-96.0058,2.0,48.19128998,13.84540718,-99999.0,'11111222,11111222,99999999' 
TABS,ioos:station:wmo:42049:1,2009-02-01T10:00:00Z,28.3507,-96.0058,2.0,44.49697309,12.8839823,-99999.0,'11111222,11111222,99999999' 
TABS,ioos:station:wmo:42049:1,2009-02-01T10:30:00Z,28.3507,-96.0058,2.0,47.98642293,11.26536728,-99999.0,'11111222,11111222,99999999' 
TABS,ioos:station:wmo:42049:1,2009-02-01T11:00:00Z,28.3507,-96.0058,2.0,57.56464871,12.28678152,-99999.0,'11111222,11111222,99999999' 
TABS,ioos:station:wmo:42049:1,2009-02-01T11:30:00Z,28.3507,-96.0058,2.0,54.01002891,13.54559707,-99999.0,'11111222,11111222,99999999' 
TABS,ioos:station:wmo:42049:1,2009-02-01T12:00:00Z,28.3507,-96.0058,2.0,51.57294592,11.92240328,-99999.0,'11111222,11111222,99999999' 
TABS,ioos:station:wmo:42049:1,2009-02-01T12:30:00Z,28.3507,-96.0058,2.0,75.72054415,12.56830935,-99999.0,'11111222,11111222,99999999' 
TABS,ioos:station:wmo:42049:1,2009-02-01T13:00:00Z,28.3507,-96.0058,2.0,83.74598188,11.01555718,-99999.0,'11111222,11111222,99999999' 
TABS,ioos:station:wmo:42049:1,2009-02-01T13:30:00Z,28.3507,-96.0058,2.0,87.67847484,9.62790216,-99999.0,'11133222,11111222,99999999' 
TABS,ioos:station:wmo:42049:1,2009-02-01T14:00:00Z,28.3507,-96.0058,2.0,119.2866719,10.54825104,-99999.0,'11111222,11111222,99999999' 
TABS,ioos:station:wmo:42049:1,2009-02-01T14:30:00Z,28.3507,-96.0058,2.0,122.0228425,10.3911597,-99999.0,'11111222,11111222,99999999' 
TABS,ioos:station:wmo:42049:1,2009-02-01T15:00:00Z,28.3507,-96.0058,2.0,101.9244961,8.227545199,-99999.0,'11133222,11111222,99999999' 
TABS,ioos:station:wmo:42049:1,2009-02-01T15:30:00Z,28.3507,-96.0058,2.0,126.7258528,7.960025126,-99999.0,'11133222,11111222,99999999' 
TABS,ioos:station:wmo:42049:1,2009-02-01T16:00:00Z,28.3507,-96.0058,2.0,124.8336052,4.446807844,-99999.0,'11133222,11111222,99999999' 
TABS,ioos:station:wmo:42049:1,2009-02-01T16:30:00Z,28.3507,-96.0058,2.0,152.0245243,3.815887839,-99999.0,'11133222,11111222,99999999' 
TABS,ioos:station:wmo:42049:1,2009-02-01T17:00:00Z,28.3507,-96.0058,2.0,150.0087734,4.041088962,-99999.0,'11133222,11111222,99999999' 
TABS,ioos:station:wmo:42049:1,2009-02-01T17:30:00Z,28.3507,-96.0058,2.0,152.6422235,2.263117319,-99999.0,'11133222,11111222,99999999' 
TABS,ioos:station:wmo:42049:1,2009-02-01T18:00:00Z,28.3507,-96.0058,2.0,223.952622,2.708671261,-99999.0,'11133222,11111222,99999999' 
TABS,ioos:station:wmo:42049:1,2009-02-01T18:30:00Z,28.3507,-96.0058,2.0,169.9918331,2.244147945,-99999.0,'11133222,11111222,99999999' 
TABS,ioos:station:wmo:42049:1,2009-02-01T19:00:00Z,28.3507,-96.0058,2.0,227.6695678,1.366199107,-99999.0,'11133222,11111222,99999999' 
TABS,ioos:station:wmo:42049:1,2009-02-01T19:30:00Z,28.3507,-96.0058,2.0,242.5514901,2.321314283,-99999.0,'11133222,11111222,99999999' 
TABS,ioos:station:wmo:42049:1,2009-02-01T20:00:00Z,28.3507,-96.0058,2.0,294.5573913,2.935523803,-99999.0,'11133222,11111222,99999999' 
TABS,ioos:station:wmo:42049:1,2009-02-01T20:30:00Z,28.3507,-96.0058,2.0,278.5723642,5.501454353,-99999.0,'11133222,11111222,99999999' 
TABS,ioos:station:wmo:42049:1,2009-02-01T21:00:00Z,28.3507,-96.0058,2.0,274.6408683,3.090129447,-99999.0,'11133222,11111222,99999999' 
TABS,ioos:station:wmo:42049:1,2009-02-01T21:30:00Z,28.3507,-96.0058,2.0,298.768003,4.654460226,-99999.0,'11133222,11111222,99999999' 
TABS,ioos:station:wmo:42049:1,2009-02-01T22:00:00Z,28.3507,-96.0058,2.0,295.7603719,3.819581129,-99999.0,'11133222,11111222,99999999' 
TABS,ioos:station:wmo:42049:1,2009-02-01T22:30:00Z,28.3507,-96.0058,2.0,318.0590061,6.493419746,-99999.0,'11133222,11111222,99999999' 
TABS,ioos:station:wmo:42049:1,2009-02-01T23:00:00Z,28.3507,-96.0058,2.0,309.5639552,9.702721268,-99999.0,'11133222,11111222,99999999' 
TABS,ioos:station:wmo:42049:1,2009-02-01T23:30:00Z,28.3507,-96.0058,2.0,317.2539763,7.012852487,-99999.0,'11133222,11111222,99999999' 
TABS,ioos:station:wmo:42049:1,2009-02-02T00:00:00Z,28.3507,-96.0058,2.0,317.4689462,6.730832044,-99999.0,'11133222,11111222,99999999' 
TABS,ioos:station:wmo:42049:1,2009-02-02T00:30:00Z,28.3507,-96.0058,2.0,339.9991473,5.43798676,-99999.0,'11133222,11111222,99999999' 
TABS,ioos:station:wmo:42049:1,2009-02-02T01:00:00Z,28.3507,-96.0058,2.0,336.1629833,8.363426331,-99999.0,'11133222,11111222,99999999' 
TABS,ioos:station:wmo:42049:1,2009-02-02T01:30:00Z,28.3507,-96.0058,2.0,2.411959049,8.317367372,-99999.0,'11133222,11111222,99999999' 
TABS,ioos:station:wmo:42049:1,2009-02-02T02:00:00Z,28.3507,-96.0058,2.0,8.813942765,10.31176513,-99999.0,'11111222,11111222,99999999' 
TABS,ioos:station:wmo:42049:1,2009-02-02T02:30:00Z,28.3507,-96.0058,2.0,10.71753159,10.80853829,-99999.0,'11111222,11111222,99999999' 
TABS,ioos:station:wmo:42049:1,2009-02-02T03:00:00Z,28.3507,-96.0058,2.0,22.80050144,10.01235736,-99999.0,'11111222,11111222,99999999' 
TABS,ioos:station:wmo:42049:1,2009-02-02T03:30:00Z,28.3507,-96.0058,2.0,37.25375824,7.764174135,-99999.0,'11133222,11111222,99999999' 
TABS,ioos:station:wmo:42049:1,2009-02-02T04:00:00Z,28.3507,-96.0058,2.0,48.27163347,11.0276244,-99999.0,'11111222,11111222,99999999' 
TABS,ioos:station:wmo:42049:1,2009-02-02T04:30:00Z,28.3507,-96.0058,2.0,36.33456415,10.70046728,-99999.0,'11111222,11111222,99999999' 
TABS,ioos:station:wmo:42049:1,2009-02-02T05:00:00Z,28.3507,-96.0058,2.0,49.01366125,11.61797315,-99999.0,'11111222,11111222,99999999' 
TABS,ioos:station:wmo:42049:1,2009-02-02T05:30:00Z,28.3507,-96.0058,2.0,59.63527521,9.515261426,-99999.0,'11133222,11111222,99999999' 
TABS,ioos:station:wmo:42049:1,2009-02-02T06:00:00Z,28.3507,-96.0058,2.0,52.29797091,10.46510392,-99999.0,'11111222,11111222,99999999' 
TABS,ioos:station:wmo:42049:1,2009-02-02T06:30:00Z,28.3507,-96.0058,2.0,49.41726093,10.09919799,-99999.0,'11111222,11111222,99999999' 
TABS,ioos:station:wmo:42049:1,2009-02-02T07:00:00Z,28.3507,-96.0058,2.0,49.46725384,9.986400753,-99999.0,'11133222,11111222,99999999' 
TABS,ioos:station:wmo:42049:1,2009-02-02T07:30:00Z,28.3507,-96.0058,2.0,48.67521312,12.0243295,-99999.0,'11111222,11111222,99999999' 
TABS,ioos:station:wmo:42049:1,2009-02-02T08:00:00Z,28.3507,-96.0058,2.0,64.49838109,11.56693564,-99999.0,'11111222,11111222,99999999' 
TABS,ioos:station:wmo:42049:1,2009-02-02T08:30:00Z,28.3507,-96.0058,2.0,86.60967071,8.454797455,-99999.0,'11133222,11111222,99999999' 
TABS,ioos:station:wmo:42049:1,2009-02-02T09:00:00Z,28.3507,-96.0058,2.0,100.8175961,16.89014506,-99999.0,'11111222,11111222,99999999' 
TABS,ioos:station:wmo:42049:1,2009-02-02T09:30:00Z,28.3507,-96.0058,2.0,95.72497748,15.83900249,-99999.0,'11111222,11111222,99999999' 
TABS,ioos:station:wmo:42049:1,2009-02-02T10:00:00Z,28.3507,-96.0058,2.0,103.6223951,14.77565565,-99999.0,'11111222,11111222,99999999' 
TABS,ioos:station:wmo:42049:1,2009-02-02T10:30:00Z,28.3507,-96.0058,2.0,124.4805684,15.87980478,-99999.0,'11111222,11111222,99999999' 
TABS,ioos:station:wmo:42049:1,2009-02-02T11:00:00Z,28.3507,-96.0058,2.0,142.2489492,14.17767611,-99999.0,'11111222,11111222,99999999' 
TABS,ioos:station:wmo:42049:1,2009-02-02T11:30:00Z,28.3507,-96.0058,2.0,144.9719291,7.84005102,-99999.0,'11133222,11111222,99999999' 
TABS,ioos:station:wmo:42049:1,2009-02-02T12:00:00Z,28.3507,-96.0058,2.0,161.0005027,9.952170618,-99999.0,'11133222,11111222,99999999' 
TABS,ioos:station:wmo:42049:1,2009-02-02T12:30:00Z,28.3507,-96.0058,2.0,187.2949152,9.607772895,-99999.0,'11133222,11111222,99999999' 
TABS,ioos:station:wmo:42049:1,2009-02-02T13:00:00Z,28.3507,-96.0058,2.0,173.2284622,13.06110638,-99999.0,'11111222,11111222,99999999' 
TABS,ioos:station:wmo:42049:1,2009-02-02T13:30:00Z,28.3507,-96.0058,2.0,194.63909,7.834334688,-99999.0,'11133222,11111222,99999999' 
TABS,ioos:station:wmo:42049:1,2009-02-02T14:00:00Z,28.3507,-96.0058,2.0,203.4811253,13.30150367,-99999.0,'11111222,11111222,99999999' 
TABS,ioos:station:wmo:42049:1,2009-02-02T14:30:00Z,28.3507,-96.0058,2.0,207.5595646,15.71298189,-99999.0,'11111222,11111222,99999999' 
TABS,ioos:station:wmo:42049:1,2009-02-02T15:00:00Z,28.3507,-96.0058,2.0,200.9576492,16.01981585,-99999.0,'11111222,11111222,99999999' 
TABS,ioos:station:wmo:42049:1,2009-02-02T15:30:00Z,28.3507,-96.0058,2.0,203.5285173,16.63286205,-99999.0,'11111222,11111222,99999999' 
TABS,ioos:station:wmo:42049:1,2009-02-02T16:00:00Z,28.3507,-96.0058,2.0,216.045873,20.17208467,-99999.0,'11111222,11111222,99999999' 
TABS,ioos:station:wmo:42049:1,2009-02-02T16:30:00Z,28.3507,-96.0058,2.0,213.9489983,20.84307319,-99999.0,'11111222,11111222,99999999' 
TABS,ioos:station:wmo:42049:1,2009-02-02T17:00:00Z,28.3507,-96.0058,2.0,217.851579,23.92351354,-99999.0,'11111222,11111222,99999999' 
TABS,ioos:station:wmo:42049:1,2009-02-02T17:30:00Z,28.3507,-96.0058,2.0,219.9072228,22.30534017,-99999.0,'11111222,11111222,99999999' 
TABS,ioos:station:wmo:42049:1,2009-02-02T18:00:00Z,28.3507,-96.0058,2.0,219.4780089,26.6756387,-99999.0,'11111222,11111222,99999999' 
TABS,ioos:station:wmo:42049:1,2009-02-02T18:30:00Z,28.3507,-96.0058,2.0,227.8004472,26.91635191,-99999.0,'11111222,11111222,99999999' 
TABS,ioos:station:wmo:42049:1,2009-02-02T19:00:00Z,28.3507,-96.0058,2.0,229.0100531,28.00636535,-99999.0,'11111222,11111222,99999999' 
TABS,ioos:station:wmo:42049:1,2009-02-02T19:30:00Z,28.3507,-96.0058,2.0,230.1720076,29.88381,-99999.0,'11111222,11111222,99999999' 
TABS,ioos:station:wmo:42049:1,2009-02-02T20:00:00Z,28.3507,-96.0058,2.0,234.8099678,31.58157849,-99999.0,'11111222,11111222,99999999' 
TABS,ioos:station:wmo:42049:1,2009-02-02T20:30:00Z,28.3507,-96.0058,2.0,236.4023684,30.83027733,-99999.0,'11111222,11111222,99999999' 
TABS,ioos:station:wmo:42049:1,2009-02-02T21:00:00Z,28.3507,-96.0058,2.0,239.9367827,31.95928191,-99999.0,'11111222,11111222,99999999' 
TABS,ioos:station:wmo:42049:1,2009-02-02T21:30:00Z,28.3507,-96.0058,2.0,242.2811423,30.65823217,-99999.0,'11111222,11111222,99999999' 
TABS,ioos:station:wmo:42049:1,2009-02-02T22:00:00Z,28.3507,-96.0058,2.0,241.4793236,27.39436621,-99999.0,'11111222,11111222,99999999' 
TABS,ioos:station:wmo:42049:1,2009-02-02T22:30:00Z,28.3507,-96.0058,2.0,246.9038705,29.26562489,-99999.0,'11111222,11111222,99999999' 
TABS,ioos:station:wmo:42049:1,2009-02-02T23:00:00Z,28.3507,-96.0058,2.0,251.353572,29.18169632,-99999.0,'11111222,11111222,99999999' 
TABS,ioos:station:wmo:42049:1,2009-02-02T23:30:00Z,28.3507,-96.0058,2.0,257.5066497,27.73673377,-99999.0,'11111222,11111222,99999999' 
TABS,ioos:station:wmo:42049:1,2009-02-03T00:00:00Z,28.3507,-96.0058,2.0,253.0975324,26.24364685,-99999.0,'11111222,11111222,99999999' 
TABS,ioos:station:wmo:42049:1,2009-02-03T00:30:00Z,28.3507,-96.0058,2.0,248.2023061,26.04191429,-99999.0,'11111222,11111222,99999999' 
TABS,ioos:station:wmo:42049:1,2009-02-03T01:00:00Z,28.3507,-96.0058,2.0,252.8918596,25.12154852,-99999.0,'11111222,11111222,99999999' 
TABS,ioos:station:wmo:42049:1,2009-02-03T01:30:00Z,28.3507,-96.0058,2.0,259.39769,23.8063941,-99999.0,'11111222,11111222,99999999' 
TABS,ioos:station:wmo:42049:1,2009-02-03T02:00:00Z,28.3507,-96.0058,2.0,256.1905506,21.40878792,-99999.0,'11111222,11111222,99999999' 
TABS,ioos:station:wmo:42049:1,2009-02-03T02:30:00Z,28.3507,-96.0058,2.0,249.668633,20.26231971,-99999.0,'11111222,11111222,99999999' 
TABS,ioos:station:wmo:42049:1,2009-02-03T03:00:00Z,28.3507,-96.0058,2.0,250.3144061,20.86967657,-99999.0,'11111222,11111222,99999999' 
TABS,ioos:station:wmo:42049:1,2009-02-03T03:30:00Z,28.3507,-96.0058,2.0,261.9363518,19.39170957,-99999.0,'11111222,11111222,99999999' 
TABS,ioos:station:wmo:42049:1,2009-02-03T04:00:00Z,28.3507,-96.0058,2.0,257.2734355,19.83732341,-99999.0,'11111222,11111222,99999999' 
TABS,ioos:station:wmo:42049:1,2009-02-03T04:30:00Z,28.3507,-96.0058,2.0,243.3839084,20.2230067,-99999.0,'11111222,11111222,99999999' 
TABS,ioos:station:wmo:42049:1,2009-02-03T05:00:00Z,28.3507,-96.0058,2.0,250.9030902,20.5403627,-99999.0,'11111222,11111222,99999999' 
TABS,ioos:station:wmo:42049:1,2009-02-03T05:30:00Z,28.3507,-96.0058,2.0,244.7454744,19.54835031,-99999.0,'11111222,11111222,99999999' 
TABS,ioos:station:wmo:42049:1,2009-02-03T06:00:00Z,28.3507,-96.0058,2.0,241.8532501,19.60883984,-99999.0,'11111222,11111222,99999999' 
TABS,ioos:station:wmo:42049:1,2009-02-03T06:30:00Z,28.3507,-96.0058,2.0,245.7436474,19.42484234,-99999.0,'11111222,11111222,99999999' 
TABS,ioos:station:wmo:42049:1,2009-02-03T07:00:00Z,28.3507,-96.0058,2.0,245.1805971,17.31967956,-99999.0,'11111222,11111222,99999999' 
TABS,ioos:station:wmo:42049:1,2009-02-03T07:30:00Z,28.3507,-96.0058,2.0,251.0915219,16.84918989,-99999.0,'11111222,11111222,99999999' 
TABS,ioos:station:wmo:42049:1,2009-02-03T08:00:00Z,28.3507,-96.0058,2.0,253.4647799,17.3577994,-99999.0,'11111222,11111222,99999999' 
TABS,ioos:station:wmo:42049:1,2009-02-03T08:30:00Z,28.3507,-96.0058,2.0,257.8898593,16.01640409,-99999.0,'11111222,11111222,99999999' 
TABS,ioos:station:wmo:42049:1,2009-02-03T09:00:00Z,28.3507,-96.0058,2.0,253.2283945,17.53589747,-99999.0,'11111222,11111222,99999999' 
TABS,ioos:station:wmo:42049:1,2009-02-03T09:30:00Z,28.3507,-96.0058,2.0,258.9341765,17.92321679,-99999.0,'11111222,11111222,99999999' 
TABS,ioos:station:wmo:42049:1,2009-02-03T10:00:00Z,28.3507,-96.0058,2.0,266.0783165,18.13244881,-99999.0,'11111222,11111222,99999999' 
TABS,ioos:station:wmo:42049:1,2009-02-03T10:30:00Z,28.3507,-96.0058,2.0,252.5172448,15.97803492,-99999.0,'11111222,11111222,99999999' 
TABS,ioos:station:wmo:42049:1,2009-02-03T11:00:00Z,28.3507,-96.0058,2.0,256.845711,15.9073725,-99999.0,'11111222,11111222,99999999' 
TABS,ioos:station:wmo:42049:1,2009-02-03T11:30:00Z,28.3507,-96.0058,2.0,265.2235683,15.37337959,-99999.0,'11111222,11111222,99999999' 
TABS,ioos:station:wmo:42049:1,2009-02-03T12:00:00Z,28.3507,-96.0058,2.0,266.809228,15.09339259,-99999.0,'11111222,11111222,99999999' 
TABS,ioos:station:wmo:42049:1,2009-02-03T12:30:00Z,28.3507,-96.0058,2.0,262.6551156,13.92424145,-99999.0,'11111222,11111222,99999999' 
TABS,ioos:station:wmo:42049:1,2009-02-03T13:00:00Z,28.3507,-96.0058,2.0,285.0319752,13.26384937,-99999.0,'11111222,11111222,99999999' 
TABS,ioos:station:wmo:42049:1,2009-02-03T13:30:00Z,28.3507,-96.0058,2.0,286.0584844,13.26768254,-99999.0,'11111222,11111222,99999999' 
TABS,ioos:station:wmo:42049:1,2009-02-03T14:00:00Z,28.3507,-96.0058,2.0,286.733976,12.78123625,-99999.0,'11111222,11111222,99999999' 
TABS,ioos:station:wmo:42049:1,2009-02-03T14:30:00Z,28.3507,-96.0058,2.0,285.7305683,12.79934764,-99999.0,'11111222,11111222,99999999' 
TABS,ioos:station:wmo:42049:1,2009-02-03T15:00:00Z,28.3507,-96.0058,2.0,308.6235375,12.22372284,-99999.0,'11111222,11111222,99999999' 
TABS,ioos:station:wmo:42049:1,2009-02-03T15:30:00Z,28.3507,-96.0058,2.0,295.9007074,11.95035146,-99999.0,'11111222,11111222,99999999' 
TABS,ioos:station:wmo:42049:1,2009-02-03T16:00:00Z,28.3507,-96.0058,2.0,306.5362898,12.01020399,-99999.0,'11111222,11111222,99999999' 
TABS,ioos:station:wmo:42049:1,2009-02-03T16:30:00Z,28.3507,-96.0058,2.0,301.1962956,10.57983459,-99999.0,'11111222,11111222,99999999' 
TABS,ioos:station:wmo:42049:1,2009-02-03T17:00:00Z,28.3507,-96.0058,2.0,304.3203914,9.080991135,-99999.0,'11133222,11111222,99999999' 
TABS,ioos:station:wmo:42049:1,2009-02-03T17:30:00Z,28.3507,-96.0058,2.0,318.0173227,10.07609547,-99999.0,'11111222,11111222,99999999' 
TABS,ioos:station:wmo:42049:1,2009-02-03T18:00:00Z,28.3507,-96.0058,2.0,315.1448797,8.40752639,-99999.0,'11133222,11111222,99999999' 
TABS,ioos:station:wmo:42049:1,2009-02-03T18:30:00Z,28.3507,-96.0058,2.0,304.1781106,7.494271145,-99999.0,'11133222,11111222,99999999' 
TABS,ioos:station:wmo:42049:1,2009-02-03T19:00:00Z,28.3507,-96.0058,2.0,303.9214392,8.941839855,-99999.0,'11133222,11111222,99999999' 
TABS,ioos:station:wmo:42049:1,2009-02-03T19:30:00Z,28.3507,-96.0058,2.0,298.4056009,7.798955058,-99999.0,'11133222,11111222,99999999' 
TABS,ioos:station:wmo:42049:1,2009-02-03T20:00:00Z,28.3507,-96.0058,2.0,294.0500738,7.33689989,-99999.0,'11133222,11111222,99999999' 
TABS,ioos:station:wmo:42049:1,2009-02-03T20:30:00Z,28.3507,-96.0058,2.0,290.5820422,7.851120939,-99999.0,'11133222,11111222,99999999' 
TABS,ioos:station:wmo:42049:1,2009-02-03T21:00:00Z,28.3507,-96.0058,2.0,293.2717069,7.238929479,-99999.0,'11133222,11111222,99999999' 
TABS,ioos:station:wmo:42049:1,2009-02-03T21:30:00Z,28.3507,-96.0058,2.0,278.2454274,6.345589019,-99999.0,'11133222,11111222,99999999' 
TABS,ioos:station:wmo:42049:1,2009-02-03T22:00:00Z,28.3507,-96.0058,2.0,288.7728975,5.904074864,-99999.0,'11133222,11111222,99999999' 
TABS,ioos:station:wmo:42049:1,2009-02-03T22:30:00Z,28.3507,-96.0058,2.0,294.0577141,3.679619546,-99999.0,'11133222,11111222,99999999' 
TABS,ioos:station:wmo:42049:1,2009-02-03T23:00:00Z,28.3507,-96.0058,2.0,323.4372001,4.482064257,-99999.0,'11133222,11111222,99999999' 
TABS,ioos:station:wmo:42049:1,2009-02-03T23:30:00Z,28.3507,-96.0058,2.0,327.2930754,6.144208655,-99999.0,'11133222,11111222,99999999' 
TABS,ioos:station:wmo:42049:1,2009-02-04T00:00:00Z,28.3507,-96.0058,2.0,322.1845663,3.392462233,-99999.0,'11133222,11111222,99999999' 
TABS,ioos:station:wmo:42049:1,2009-02-04T00:30:00Z,28.3507,-96.0058,2.0,340.0015047,6.257315718,-99999.0,'11133222,11111222,99999999' 
TABS,ioos:station:wmo:42049:1,2009-02-04T01:00:00Z,28.3507,-96.0058,2.0,318.7847867,7.284943377,-99999.0,'11133222,11111222,99999999' 
TABS,ioos:station:wmo:42049:1,2009-02-04T01:30:00Z,28.3507,-96.0058,2.0,323.4365973,6.362090851,-99999.0,'11133222,11111222,99999999' 
TABS,ioos:station:wmo:42049:1,2009-02-04T02:00:00Z,28.3507,-96.0058,2.0,336.4430639,5.454576061,-99999.0,'11133222,11111222,99999999' 
TABS,ioos:station:wmo:42049:1,2009-02-04T02:30:00Z,28.3507,-96.0058,2.0,348.7064851,6.944472622,-99999.0,'11133222,11111222,99999999' 
TABS,ioos:station:wmo:42049:1,2009-02-04T03:00:00Z,28.3507,-96.0058,2.0,330.7041073,5.068214676,-99999.0,'11133222,11111222,99999999' 
TABS,ioos:station:wmo:42049:1,2009-02-04T03:30:00Z,28.3507,-96.0058,2.0,306.4394461,2.660075187,-99999.0,'11133222,11111222,99999999' 
TABS,ioos:station:wmo:42049:1,2009-02-04T04:00:00Z,28.3507,-96.0058,2.0,247.0037388,2.226971037,-99999.0,'11133222,11111222,99999999' 
TABS,ioos:station:wmo:42049:1,2009-02-04T04:30:00Z,28.3507,-96.0058,2.0,213.6659051,6.656402933,-99999.0,'11133222,11111222,99999999' 
TABS,ioos:station:wmo:42049:1,2009-02-04T05:00:00Z,28.3507,-96.0058,2.0,214.8946716,8.705170877,-99999.0,'11133222,11111222,99999999' 
TABS,ioos:station:wmo:42049:1,2009-02-04T05:30:00Z,28.3507,-96.0058,2.0,220.4007956,7.760734501,-99999.0,'11133222,11111222,99999999' 
TABS,ioos:station:wmo:42049:1,2009-02-04T06:00:00Z,28.3507,-96.0058,2.0,214.6500725,7.281462765,-99999.0,'11133222,11111222,99999999' 
TABS,ioos:station:wmo:42049:1,2009-02-04T06:30:00Z,28.3507,-96.0058,2.0,215.6539275,9.14405818,-99999.0,'11133222,11111222,99999999' 
TABS,ioos:station:wmo:42049:1,2009-02-04T07:00:00Z,28.3507,-96.0058,2.0,215.9297613,8.657164663,-99999.0,'11133222,11111222,99999999' 
TABS,ioos:station:wmo:42049:1,2009-02-04T07:30:00Z,28.3507,-96.0058,2.0,226.311569,11.11863301,-99999.0,'11111222,11111222,99999999' 
TABS,ioos:station:wmo:42049:1,2009-02-04T08:00:00Z,28.3507,-96.0058,2.0,244.6026434,9.652875219,-99999.0,'11133222,11111222,99999999' 
TABS,ioos:station:wmo:42049:1,2009-02-04T08:30:00Z,28.3507,-96.0058,2.0,246.6760264,13.84104404,-99999.0,'11111222,11111222,99999999' 
TABS,ioos:station:wmo:42049:1,2009-02-04T09:00:00Z,28.3507,-96.0058,2.0,249.9522545,13.71074032,-99999.0,'11111222,11111222,99999999' 
TABS,ioos:station:wmo:42049:1,2009-02-04T09:30:00Z,28.3507,-96.0058,2.0,253.0772953,13.77651988,-99999.0,'11111222,11111222,99999999' 
TABS,ioos:station:wmo:42049:1,2009-02-04T10:00:00Z,28.3507,-96.0058,2.0,239.8952038,16.00947844,-99999.0,'11111222,11111222,99999999' 
TABS,ioos:station:wmo:42049:1,2009-02-04T10:30:00Z,28.3507,-96.0058,2.0,235.0630068,16.95565098,-99999.0,'11111222,11111222,99999999' 
TABS,ioos:station:wmo:42049:1,2009-02-04T11:00:00Z,28.3507,-96.0058,2.0,238.5651457,16.49014554,-99999.0,'11111222,11111222,99999999' 
TABS,ioos:station:wmo:42049:1,2009-02-04T11:30:00Z,28.3507,-96.0058,2.0,233.5508134,17.69047766,-99999.0,'11111222,11111222,99999999' 
TABS,ioos:station:wmo:42049:1,2009-02-04T12:00:00Z,28.3507,-96.0058,2.0,235.0019611,16.52882331,-99999.0,'11111222,11111222,99999999' 
TABS,ioos:station:wmo:42049:1,2009-02-04T12:30:00Z,28.3507,-96.0058,2.0,239.9728163,15.62732543,-99999.0,'11111222,11111222,99999999' 
TABS,ioos:station:wmo:42049:1,2009-02-04T13:00:00Z,28.3507,-96.0058,2.0,238.6802937,18.2375108,-99999.0,'11111222,11111222,99999999' 
TABS,ioos:station:wmo:42049:1,2009-02-04T13:30:00Z,28.3507,-96.0058,2.0,241.6840605,20.93489432,-99999.0,'11111222,11111222,99999999' 
TABS,ioos:station:wmo:42049:1,2009-02-04T14:00:00Z,28.3507,-96.0058,2.0,243.9320141,22.66563919,-99999.0,'11111222,11111222,99999999' 
TABS,ioos:station:wmo:42049:1,2009-02-04T14:30:00Z,28.3507,-96.0058,2.0,243.5311014,23.89465631,-99999.0,'11111222,11111222,99999999' 
TABS,ioos:station:wmo:42049:1,2009-02-04T15:00:00Z,28.3507,-96.0058,2.0,244.3796543,23.58925391,-99999.0,'11111222,11111222,99999999' 
TABS,ioos:station:wmo:42049:1,2009-02-04T15:30:00Z,28.3507,-96.0058,2.0,241.5499315,24.74877169,-99999.0,'11111222,11111222,99999999' 
TABS,ioos:station:wmo:42049:1,2009-02-04T16:00:00Z,28.3507,-96.0058,2.0,244.415479,25.07894137,-99999.0,'11111222,11111222,99999999' 